Regional Weather Roundup
Issued by NWS

Home | Current Version | Previous Version | Graphics & Text | Print | Product List | Glossary Off
Versions: 1 2 3 4 5 6 7 8 9 10 11 12 13 14 15 16 17 18 19 20 21 22 23 24 25 26 27 28 29 30 31 32 33 34 35 36 37 38 39 40 41 42 43 44 45 46 47 48 49 50

000
ASUS43 KDTX 041410
RWRMI
MICHIGAN HOURLY REGIONAL WEATHER ROUNDUP
NATIONAL WEATHER SERVICE DETROIT/PONTIAC MI
ISSUED BY NATIONAL WEATHER SERVICE GRAND RAPIDS MI
900 AM EST SUN DEC 04 2016

NOTE: "FAIR" INDICATES FEW OR NO CLOUDS BELOW 12,000 FEET WITH NO
SIGNIFICANT WEATHER AND/OR OBSTRUCTION TO VISIBILITY.

MIZ047>049-052>055-059>063-066>070-074>076-081>083-041500-
SOUTHEAST LOWER MICHIGAN

CITY           SKY/WX    TMP DP  RH WIND       PRES   REMARKS
ADRIAN         CLOUDY    33  29  85 SE3       30.22S
ALMA           CLOUDY    34  31  89 SE3       30.21F
ANN ARBOR      CLOUDY    34  30  85 S3        30.22S
BAD AXE        CLOUDY    33  32  96 CALM      30.23R
DETROIT CITY   CLOUDY    36  27  69 CALM      30.24S
DETROIT        CLOUDY    35  28  75 S3        30.24S
FLINT          CLOUDY    34  29  82 SE5       30.22S WCI  30
GROSSE ILE     CLOUDY    36  28  72 CALM      30.23S
HILLSDALE      CLOUDY    32  27  80 E6        30.18S WCI  26
HOWELL         CLOUDY    32  28  86 SE3       30.21S

CITY           SKY/WX    TMP DP  RH WIND       PRES   REMARKS
JACKSON        MOCLDY    33  26  75 SE5       30.20S WCI  29
LANSING        CLOUDY    34  26  72 SE5       30.21S WCI  30
MASON          CLOUDY    32  29  87 CALM      30.21S
MONROE         CLOUDY    32  30  92 CALM      30.22S
MT. CLEMENS    CLOUDY    36  32  86 CALM      30.21F
PONTIAC        CLOUDY    34  29  82 CALM      30.20F
PORT HOPE        N/A     35  33  92 CALM      30.21R
PORT HURON     CLOUDY    34  32  93 CALM      30.24S
TRI CITIES     CLOUDY    34  31  88 SE3       30.22F
YPSILANTI      CLOUDY    36  30  79 S3        30.23F
$$
MIZ043>046-050>051-056>058-064>065-071>073-077>080-041500-
SOUTHWEST LOWER MICHIGAN

CITY           SKY/WX    TMP DP  RH WIND       PRES   REMARKS
BATTLE CREEK   CLOUDY    33  28  81 SE5       30.20R WCI  29
BENTON HARBOR  CLOUDY    34  25  69 SE6       30.19F WCI  29
BIG RAPIDS     CLOUDY    34  28  77 CALM      30.17F
COLDWATER      CLOUDY    33  26  74 SE3       30.19S
HOLLAND        CLOUDY    33  27  78 SE7       30.19S WCI  27
GRAND RAPIDS   CLOUDY    32  26  78 SE5       30.20F WCI  27
KALAMAZOO      CLOUDY    33  27  78 SE3       30.20R HAZE
MARSHALL       CLOUDY    32  28  84 CALM      30.20R
MOUNT PLEASANT CLOUDY    33  30  87 SE3       30.20S
MUSKEGON       CLOUDY    35  27  72 SE8       30.17F WCI  29
STURGIS        CLOUDY    33  27  76 E5        30.17F WCI  29
$$
MIZ016>042-041500-
NORTHERN LOWER MICHIGAN

CITY           SKY/WX    TMP DP  RH WIND       PRES   REMARKS
ALPENA         CLOUDY    34  32  92 CALM      30.20F
BEAVER ISLAND  CLOUDY    36  30  80 S5        30.16R WCI  32
BELLAIRE       CLOUDY    33  30  90 CALM      30.20R
CADILLAC       CLOUDY    31  26  83 SE6       30.16S WCI  25
CHARLEVOIX     CLOUDY    33  32  96 S8        30.21R WCI  26
GAYLORD        CLOUDY    32  28  85 S5        30.16R FOG     WCI  27
HOUGHTON LAKE  CLOUDY    31  27  85 CALM      30.19R
MANISTEE       CLOUDY    33  27  78 SE5       30.18S WCI  29
OSCODA         CLOUDY    35  33  92 MISG      30.20F
PELLSTON       CLOUDY    33  31  92 CALM      30.18S
TRAVERSE CITY  CLOUDY    34  28  79 SE3       30.17S
LUDINGTON      CLOUDY    33  29  86 SE6       30.17S WCI  28
$$
MIZ007>008-015-041500-
EASTERN UPPER MICHIGAN

CITY           SKY/WX    TMP DP  RH WIND       PRES   REMARKS
KINROSS        LGT SNOW  31  31 100 SE12      30.17F FOG     WCI  22
MACKINAC ISLAN CLOUDY    35  32  87 S6        30.17S WCI  30
NEWBERRY       FLURRIES  32  31  97 SE6       30.14S WCI  26
S. S. MARIE    CLOUDY    31  25  78 E9        30.19R WCI  23
$$
MIZ004>006-011>014-085-041500-
CENTRAL UPPER MICHIGAN

CITY           SKY/WX    TMP DP  RH WIND       PRES   REMARKS
MANISTIQUE     CLOUDY    32  30  92 CALM      30.14S
ESCANABA       CLOUDY    31  24  75 SW3       30.15S
MENOMINEE      CLOUDY    31  24  75 CALM      30.16S
SAWYER-GWINN   CLOUDY   N/A N/A N/A SW10      30.09F
$$
MIZ001>003-009>011-084-041500-
WESTERN UPPER MICHIGAN

CITY           SKY/WX    TMP DP  RH WIND       PRES   REMARKS
IRON MOUNTAIN  CLOUDY    28  21  75 S8        30.08F WCI  20
HOUGHTON       CLOUDY    29  22  75 SW10      30.05F WCI  20
COPPER HARBOR    N/A     34  27  75 VRB3      30.07S
IRONWOOD       FLURRIES  27  24  89 SE5       30.01F WCI  22
$$

ABBREVIATIONS USED IN REMARKS
   TC - TEMPERATURE IN CELSIUS
  WCI - WIND CHILL INDEX
   HX - HEAT INDEX
  VSB - VISIBILITY





USA.gov is the U.S. government's official web portal to all federal, state and local government web resources and services.